EW5209 Weather Reports


Display with metric or nautical units.
time (UTC)temp
F
wind
direction
speed
MPH
gust
MPH
rain 1hr
in
rain 24hr
in
rain mn
in
humidity
%
barometer
mb
20260506102340 61 356 0.0 3.0 0.00 0.00 0.00 80 1009.7
20260506102006 61 33 1.0 6.0 0.00 0.00 0.00 79 1009.6
20260506102000 61 347 0.0 5.0 0.00 0.00 0.00 80 1009.6
20260506100842 61 0 0.0 6.0 0.00 0.00 0.00 80 1009.6
20260506095847 61 340 1.0 6.0 0.00 0.00 0.00 79 1009.5
20260506095841 61 82 1.0 6.0 0.00 0.00 0.00 80 1009.6
20260506094842 61 26 2.0 9.0 0.00 0.00 0.00 79 1009.3
20260506094340 61 4 3.0 9.0 0.00 0.00 0.00 79 1009.3
20260506093839 62 41 3.0 9.0 0.00 0.00 0.00 80 1009.4
20260506093340 62 17 2.0 9.0 0.00 0.00 0.00 80 1009.3
20260506092837 62 28 1.0 8.0 0.00 0.00 0.00 80 1009.3
20260506092338 62 326 2.0 8.0 0.00 0.00 0.00 80 1009.3
20260506091837 62 338 2.0 8.0 0.00 0.00 0.00 80 1009.2
20260506091338 63 317 3.0 8.0 0.00 0.00 0.00 80 1009.0
20260506090844 63 320 1.0 5.0 0.00 0.00 0.00 80 1008.8
20260506090835 63 24 2.0 7.0 0.00 0.00 0.00 80 1009.0
20260506090336 63 327 1.0 7.0 0.00 0.00 0.00 80 1008.9
20260506085340 63 342 0.0 4.0 0.00 0.00 0.00 81 1008.8
20260506085333 63 27 0.0 5.0 0.00 0.00 0.00 81 1008.7
20260506084833 63 323 0.0 4.0 0.00 0.00 0.00 81 1008.8
20260506083838 64 60 0.0 4.0 0.00 0.00 0.00 81 1008.7
20260506083834 64 40 0.0 4.0 0.00 0.00 0.00 81 1008.8
20260506082833 64 45 1.0 8.0 0.00 0.00 0.00 81 1008.5
20260506082338 64 58 1.0 8.0 0.00 0.00 0.00 80 1008.5
20260506082334 64 49 1.0 8.0 0.00 0.00 0.00 81 1008.6
20260506081335 64 89 1.0 8.0 0.00 0.00 0.00 80 1008.6
20260506080833 65 27 1.0 6.0 0.00 0.00 0.00 80 1008.6
20260506080332 65 83 1.0 6.0 0.00 0.00 0.00 80 1008.6
20260506073332 66 30 1.0 4.0 0.00 0.00 0.00 79 1008.7
20260506072832 66 35 1.0 6.0 0.00 0.00 0.00 79 1008.7
20260506072332 66 64 1.0 6.0 0.00 0.00 0.00 79 1008.7
20260506071829 66 354 1.0 7.0 0.00 0.00 0.00 79 1008.7
20260506071328 67 34 1.0 7.0 0.00 0.00 0.00 79 1008.8
20260506070829 67 40 1.0 7.0 0.00 0.00 0.00 79 1008.8
20260506070333 67 338 1.0 7.0 0.00 0.00 0.00 79 1008.7
20260506070328 67 30 1.0 7.0 0.00 0.00 0.00 79 1008.7
20260506062332 70 43 1.0 8.0 0.00 0.00 0.00 78 1008.6
20260506062327 69 62 1.0 8.0 0.00 0.00 0.00 78 1008.5
20260506061329 70 277 1.0 5.0 0.00 0.00 0.00 77 1008.4
20260506060827 70 357 1.0 5.0 0.00 0.00 0.00 77 1008.6
20260506060327 71 62 1.0 5.0 0.00 0.00 0.00 77 1008.4
20260506051325 74 71 1.0 7.0 0.00 0.00 0.00 76 1008.2
20260506050827 74 1 2.0 7.0 0.00 0.00 0.00 75 1008.0
20260506050823 74 46 2.0 7.0 0.00 0.00 0.00 75 1008.0
20260506044827 75 315 3.0 6.0 0.00 0.00 0.00 74 1007.9
20260506044823 74 347 3.0 7.0 0.00 0.00 0.00 74 1007.9
20260506043821 75 324 3.0 6.0 0.00 0.00 0.00 73 1007.9
20260506043327 75 330 4.0 7.0 0.00 0.00 0.00 73 1007.8
20260506043321 75 311 4.0 7.0 0.00 0.00 0.00 73 1007.8
20260506042321 75 332 2.0 7.0 0.00 0.00 0.00 73 1007.7
20260506041825 75 357 1.0 7.0 0.00 0.00 0.00 73 1007.6
20260506041819 75 317 1.0 7.0 0.00 0.00 0.00 73 1007.8
20260506040819 75 74 2.0 7.0 0.00 0.00 0.00 74 1007.5
20260506040320 76 8 3.0 7.0 0.00 0.00 0.00 74 1007.4
20260506035824 76 317 3.0 9.0 0.00 0.00 0.00 74 1007.5
20260506035820 76 309 3.0 7.0 0.00 0.00 0.00 74 1007.4
20260506034824 76 319 4.0 9.0 0.00 0.00 0.00 73 1007.2
20260506034819 76 321 3.0 9.0 0.00 0.00 0.00 74 1007.4
20260506034439 78 6 2.0 6.0 0.00 0.00 0.00 82 1007.4
20260506033819 77 345 3.0 9.0 0.00 0.00 0.00 75 1007.4
20260506032818 78 319 2.0 3.0 0.00 0.00 0.00 82 1007.3
20260506032317 78 282 1.0 3.0 0.00 0.00 0.00 81 1007.0
20260506031817 78 319 0.0 3.0 0.00 0.00 0.00 81 1006.9
20260506031317 78 289 0.0 2.0 0.00 0.00 0.00 82 1006.9
20260506030818 78 301 1.0 2.0 0.00 0.00 0.00 81 1006.7
20260506030318 78 299 1.0 2.0 0.00 0.00 0.00 81 1006.4
20260506025818 78 294 0.0 2.0 0.00 0.00 0.00 82 1006.3
20260506025322 78 213 0.0 0.0 0.00 0.00 0.00 81 1006.0
20260506025317 78 213 0.0 0.0 0.00 0.00 0.00 82 1006.2
20260506024318 78 213 0.0 0.0 0.00 0.00 0.00 81 1005.9
20260506023820 78 213 0.0 0.0 0.00 0.00 0.00 81 1005.4
20260506023816 78 213 0.0 0.0 0.00 0.00 0.00 81 1005.9
20260506023433 78 220 0.0 0.0 0.00 0.00 0.00 81 1005.3
20260506022316 78 220 0.0 0.0 0.00 0.00 0.00 81 1005.4
20260506021822 79 141 0.0 3.0 0.00 0.00 0.00 80 1005.1
20260506021815 78 157 0.0 2.0 0.00 0.00 0.00 80 1005.2
20260506021316 79 131 0.0 2.0 0.00 0.00 0.00 80 1005.0
20260506020320 79 248 1.0 6.0 0.00 0.00 0.00 79 1005.1
20260506020314 79 168 0.0 6.0 0.00 0.00 0.00 80 1005.3
20260506015314 79 117 1.0 7.0 0.00 0.00 0.00 79 1005.0
20260506014812 79 131 1.0 7.0 0.00 0.00 0.00 79 1004.8
20260506014312 79 113 1.0 7.0 0.00 0.00 0.00 79 1004.8
20260506013813 79 113 1.0 8.0 0.00 0.00 0.00 79 1004.8
20260506013312 79 288 1.0 8.0 0.00 0.00 0.00 79 1004.8
20260506012813 80 148 2.0 8.0 0.00 0.00 0.00 78 1004.7
20260506012312 80 131 2.0 8.0 0.00 0.00 0.00 78 1004.4
20260506011812 80 121 2.0 6.0 0.00 0.00 0.00 78 1004.4
20260506011316 80 123 1.0 5.0 0.00 0.00 0.00 77 1004.5
20260506011310 80 131 2.0 6.0 0.00 0.00 0.00 77 1004.6
20260506010308 80 98 1.0 5.0 0.00 0.00 0.00 77 1004.5
20260506005810 80 131 1.0 6.0 0.00 0.00 0.00 77 1004.6
20260506005310 80 114 1.0 6.0 0.00 0.00 0.00 77 1004.6
20260506004809 81 132 1.0 4.0 0.00 0.00 0.00 76 1004.4
20260506004309 81 115 0.0 8.0 0.00 0.00 0.00 76 1004.5
20260506003814 81 129 2.0 8.0 0.00 0.00 0.00 75 1004.3
20260506003809 81 105 0.0 8.0 0.00 0.00 0.00 76 1004.5
20260506002809 81 148 3.0 8.0 0.00 0.00 0.00 75 1004.3
20260506002313 82 82 1.0 5.0 0.00 0.00 0.00 75 1004.1
20260506002309 81 121 2.0 6.0 0.00 0.00 0.00 75 1004.2
20260506001309 82 200 1.0 10.0 0.00 0.00 0.00 75 1004.2
20260506000806 82 110 2.0 10.0 0.00 0.00 0.00 75 1004.4
20260506000312 82 137 3.0 11.0 0.00 0.00 0.00 74 1004.2
20260506000306 82 207 2.0 10.0 0.00 0.00 0.00 74 1004.3
20260505235802 82 252 2.0 11.0 0.00 0.00 0.00 74 1004.2
20260505234802 82 214 4.0 11.0 0.00 0.00 0.00 74 1004.4
20260505234307 83 148 4.0 11.0 0.00 0.00 0.00 73 1004.3
20260505234302 82 198 4.0 11.0 0.00 0.00 0.00 73 1004.2
20260505233306 83 218 4.0 10.0 0.00 0.00 0.00 72 1004.2
20260505233300 83 91 4.0 10.0 0.00 0.00 0.00 73 1004.3
20260505232301 83 281 4.0 10.0 0.00 0.00 0.00 72 1004.1
20260505231802 83 169 4.0 10.0 0.00 0.00 0.00 72 1004.2
20260505231301 84 201 3.0 10.0 0.00 0.00 0.00 71 1004.2
20260505230801 84 250 3.0 9.0 0.00 0.00 0.00 71 1004.0
20260505230302 84 215 3.0 9.0 0.00 0.00 0.00 71 1004.0
20260505225802 84 264 3.0 11.0 0.00 0.00 0.00 71 1004.0
20260505225305 84 134 4.0 11.0 0.00 0.00 0.00 71 1004.0
20260505224802 85 216 5.0 11.0 0.00 0.00 0.00 70 1003.9
20260505224301 85 264 4.0 11.0 0.00 0.00 0.00 70 1004.0
20260505223801 85 191 4.0 10.0 0.00 0.00 0.00 70 1004.1
20260505223301 85 251 5.0 13.0 0.00 0.00 0.00 70 1004.1
20260505222802 84 191 5.0 13.0 0.00 0.00 0.00 70 1003.8
20260505222301 85 109 5.0 15.0 0.00 0.00 0.00 69 1003.7
20260505221758 85 191 5.0 15.0 0.00 0.00 0.00 69 1003.8
20260505221305 85 207 4.0 15.0 0.00 0.00 0.00 68 1003.9
20260505221300 85 224 5.0 15.0 0.00 0.00 0.00 70 1003.8
20260505220258 86 231 4.0 11.0 0.00 0.00 0.00 68 1003.6
20260505215803 86 140 5.0 13.0 0.00 0.00 0.00 68 1003.9
20260505215758 86 207 5.0 13.0 0.00 0.00 0.00 68 1003.7
20260505215257 86 193 5.0 13.0 0.00 0.00 0.00 68 1003.8
20260505214254 86 162 4.0 13.0 0.00 0.00 0.00 67 1003.9
20260505213910 86 92 4.0 12.0 0.00 0.00 0.00 67 1004.1
20260505213758 86 160 4.0 12.0 0.00 0.00 0.00 68 1004.0
20260505213753 86 116 3.0 11.0 0.00 0.00 0.00 68 1004.0
20260505212248 86 206 5.0 14.0 0.00 0.00 0.00 69 1004.2
20260505211749 86 182 5.0 14.0 0.00 0.00 0.00 68 1004.2
20260505211253 85 118 5.0 12.0 0.00 0.00 0.00 67 1004.1
20260505211249 86 234 5.0 13.0 0.00 0.00 0.00 68 1004.0
20260505210908 85 187 6.0 12.0 0.00 0.00 0.00 69 1004.2
20260505205754 85 169 5.0 15.0 0.00 0.00 0.00 68 1004.4
20260505205749 85 242 6.0 12.0 0.00 0.00 0.00 68 1004.3
20260505204748 86 172 5.0 15.0 0.00 0.00 0.00 67 1004.4
20260505204248 85 139 6.0 16.0 0.00 0.00 0.00 69 1004.4
20260505203748 85 200 5.0 16.0 0.00 0.00 0.00 67 1004.5
20260505203248 85 187 5.0 16.0 0.00 0.00 0.00 69 1004.5
20260505202747 85 67 5.0 16.0 0.00 0.00 0.00 69 1004.7
20260505202246 85 236 5.0 11.0 0.00 0.00 0.00 69 1004.7
20260505201747 85 130 5.0 14.0 0.00 0.00 0.00 70 1004.8
20260505201245 85 158 5.0 14.0 0.00 0.00 0.00 69 1004.8
20260505200744 84 224 5.0 14.0 0.00 0.00 0.00 70 1004.8
20260505200246 84 215 6.0 14.0 0.00 0.00 0.00 70 1004.8
20260505195744 84 221 6.0 14.0 0.00 0.00 0.00 71 1004.8
20260505195245 84 148 6.0 13.0 0.00 0.00 0.00 70 1004.8
20260505194744 84 122 6.0 15.0 0.00 0.00 0.00 70 1004.8
20260505194245 84 249 5.0 15.0 0.00 0.00 0.00 70 1004.9
20260505193743 83 156 6.0 14.0 0.00 0.00 0.00 72 1005.0
20260505193244 83 205 6.0 14.0 0.00 0.00 0.00 71 1004.9
20260505192742 83 170 5.0 14.0 0.00 0.00 0.00 71 1004.9
20260505192242 83 211 5.0 12.0 0.00 0.00 0.00 70 1005.1
20260505191748 83 145 7.0 15.0 0.00 0.00 0.00 71 1005.2
20260505191743 83 217 6.0 14.0 0.00 0.00 0.00 72 1005.1
20260505190740 83 235 5.0 15.0 0.00 0.00 0.00 71 1005.2
20260505190242 83 223 6.0 15.0 0.00 0.00 0.00 72 1005.2
20260505185741 82 207 6.0 15.0 0.00 0.00 0.00 71 1005.2
20260505185241 82 203 6.0 15.0 0.00 0.00 0.00 72 1005.3
20260505184745 82 127 5.0 14.0 0.00 0.00 0.00 73 1005.5
20260505184739 83 213 5.0 14.0 0.00 0.00 0.00 71 1005.4
20260505184405 81 226 6.0 18.0 0.00 0.00 0.00 73 1005.6
20260505184359 82 150 6.0 18.0 0.00 0.00 0.00 73 1005.6
20260505182738 82 223 6.0 18.0 0.00 0.00 0.00 73 1005.7
20260505182238 81 203 8.0 18.0 0.00 0.00 0.00 74 1005.7
20260505181740 80 194 8.0 18.0 0.00 0.00 0.00 73 1005.7
20260505181240 81 257 8.0 20.0 0.00 0.00 0.00 73 1005.7
20260505180740 80 170 7.0 20.0 0.00 0.00 0.00 74 1005.6
20260505180247 80 210 8.0 20.0 0.00 0.00 0.00 74 1005.5
20260505180239 80 146 7.0 20.0 0.00 0.00 0.00 75 1005.6
20260505175238 80 202 7.0 18.0 0.00 0.00 0.00 73 1005.4
20260505174743 81 113 6.0 16.0 0.00 0.00 0.00 73 1005.4
20260505174739 81 155 7.0 17.0 0.00 0.00 0.00 73 1005.5
20260505173737 81 226 7.0 20.0 0.00 0.00 0.00 74 1005.6
20260505173238 80 213 8.0 20.0 0.00 0.00 0.00 74 1005.5
20260505172738 80 216 8.0 18.0 0.00 0.00 0.00 75 1005.5
20260505172234 80 158 8.0 18.0 0.00 0.00 0.00 75 1005.6
20260505171735 79 231 8.0 20.0 0.00 0.00 0.00 75 1005.6
20260505171232 79 190 7.0 20.0 0.00 0.00 0.00 76 1005.7
20260505170732 79 222 8.0 20.0 0.00 0.00 0.00 76 1005.6
20260505170237 79 215 9.0 22.0 0.00 0.00 0.00 75 1005.6
20260505170232 79 210 8.0 22.0 0.00 0.00 0.00 75 1005.5
20260505165234 79 214 9.0 22.0 0.00 0.00 0.00 75 1005.5
20260505164733 79 207 9.0 22.0 0.00 0.00 0.00 75 1005.9
20260505164232 79 187 9.0 20.0 0.00 0.00 0.00 76 1005.7
20260505163738 78 154 7.0 18.0 0.00 0.00 0.00 77 1005.7
20260505163732 78 248 8.0 19.0 0.00 0.00 0.00 76 1006.0
20260505163356 78 151 7.0 18.0 0.00 0.00 0.00 77 1005.9
20260505163232 78 116 7.0 19.0 0.00 0.00 0.00 76 1005.9
20260505161730 78 229 8.0 18.0 0.00 0.00 0.00 77 1005.7
20260505161231 78 183 8.0 18.0 0.00 0.00 0.00 78 1005.7
20260505160730 77 190 8.0 18.0 0.00 0.00 0.00 78 1005.6
20260505160231 77 176 7.0 18.0 0.00 0.00 0.00 78 1005.7
20260505153228 77 246 6.0 15.0 0.00 0.00 0.00 78 1005.9
20260505152726 76 148 5.0 18.0 0.00 0.00 0.00 78 1006.0
20260505152226 76 269 5.0 18.0 0.00 0.00 0.00 79 1006.1
20260505151726 76 150 7.0 18.0 0.00 0.00 0.00 80 1006.0
20260505151227 76 72 8.0 18.0 0.00 0.00 0.00 80 1005.7
20260505150726 76 148 7.0 19.0 0.00 0.00 0.00 80 1005.7
20260505150227 76 197 8.0 19.0 0.00 0.00 0.00 80 1005.5
20260505130220 72 256 5.0 14.0 0.00 0.00 0.00 83 1005.1
20260505124220 72 212 4.0 11.0 0.00 0.00 0.00 83 1005.0
20260505123718 0 0.0 0.0 0.00 0.00 0.00 1005.0
20260505123219 0 0.0 0.0 0.00 0.00 0.00 1004.9
20260505122711 0 0.0 0.0 0.00 0.00 0.00 1004.7
20260505122122 0 0.0 0.0 0.00 0.00 0.00 1004.8
20260505122024 0 0.0 0.0 0.00 0.00 0.00 1004.8
20260505121628 0 0.0 0.0 0.00 0.00 0.00 1004.9
20260505121127 0 0.0 0.0 0.00 0.00 0.00 1004.8
20260505120021 0 0.0 0.0 0.00 0.00 0.00 1004.8
20260505115519 0 0.0 0.0 0.00 0.00 0.00 1004.6
20260505115020 0 0.0 0.0 0.00 0.00 0.00 1004.7
20260505115016 0 0.0 0.0 0.00 0.00 0.00 1004.7
20260505114622 0 0.0 0.0 0.00 0.00 0.00 1004.8
20260505113516 0 0.0 0.0 0.00 0.00 0.00 1004.7
20260505113014 0 0.0 0.0 0.00 0.00 0.00 1004.7
20260505112923 0 0.0 0.0 0.00 0.00 0.00 1004.5
20260505112527 0 0.0 0.0 0.00 0.00 0.00 1004.7
20260505112024 0 0.0 0.0 0.00 0.00 0.00 1004.6
20260505110914 0 0.0 0.0 0.00 0.00 0.00 1004.6
20260505110316 0 0.0 0.0 0.00 0.00 0.00 1004.6